Ely, MN

3:40 PM CDT on April 28, 2017 (GMT -0500)
Ely Municipal

Weather History for KELO - November, 2013

Change the Weather History Date:

Thursday, November 21, 2013

  Actual Average Record
Temperature  
Mean Temperature 24 °F -  
Max Temperature 33 °F 30 °F 51 °F (2006)
Min Temperature 15 °F 18 °F -11 °F (2014)
Degree Days  
Heating Degree Days 41    
Moisture  
Dew Point 18 °F    
Average Humidity 80    
Maximum Humidity 93    
Minimum Humidity 68    
Precipitation  
Precipitation 0.00 in - - ()
Sea Level Pressure  
Sea Level Pressure 30.22 in    
Wind  
Wind Speed 5 mph (NW)    
Max Wind Speed 14 mph    
Max Gust Speed 23 mph    
Visibility 9 miles    
Events Snow    
Averages and records for this station are not official NWS values.
T = Trace of Precipitation, MM = Missing Value Source: NWS Daily Summary

Daily Weather History Graph

Daily Weather History Graph

Search for Another Location

Airport or City:

Trip Planner

Search our weather history database for the weather conditions in past years. The results will help you decide how hot, cold, wet, or windy it might be!

Date:

Astronomy

Nov. 21, 2013 Rise Set
Actual Time 7:22 AM CST 4:23 PM CST
Civil Twilight 6:47 AM CST 4:58 PM CST
Nautical Twilight 6:09 AM CST 5:36 PM CST
Astronomical Twilight 5:33 AM CST 6:13 PM CST
Moon 8:03 PM CST (11/21) 10:27 AM CST (11/21)
Length of Visible Light 10h 10m
Length of Day
9h 01m
Waning Gibbous, 85% of the Moon is Illuminated
Nov 21
Waning Gibbous
Nov 25
Last Quarter
Dec 2
New
Dec 9
First Quarter
Dec 17
Full

Hourly Weather History & Observations

Time (CST) Temp. Windchill Dew Point Humidity Pressure Visibility Wind Dir Wind Speed Gust Speed Precip Events Conditions
12:13 AM 32.0 °F - 26.6 °F 80% 29.99 in 10.0 mi Calm Calm - N/A   Clear
12:33 AM 30.2 °F - 26.6 °F 86% 29.99 in 10.0 mi Calm Calm - N/A   Mostly Cloudy
12:52 AM 30.2 °F - 26.6 °F 86% 30.00 in 10.0 mi Calm Calm - N/A   Overcast
1:13 AM 32.0 °F - 28.4 °F 87% 30.00 in 10.0 mi Calm Calm - N/A   Overcast
1:33 AM 32.0 °F - 28.4 °F 87% 30.00 in 10.0 mi Calm Calm - N/A   Overcast
1:53 AM 32.0 °F - 28.4 °F 87% 30.00 in 10.0 mi Calm Calm - N/A   Overcast
2:13 AM 33.8 °F - 28.4 °F 81% 30.01 in 10.0 mi Calm Calm - N/A   Overcast
2:32 AM 33.8 °F - 28.4 °F 81% 30.01 in 10.0 mi Calm Calm - N/A   Overcast
2:53 AM 33.8 °F - 28.4 °F 81% 30.01 in 10.0 mi Calm Calm - N/A   Overcast
3:13 AM 33.8 °F 30.8 °F 28.4 °F 81% 30.01 in 10.0 mi SSW 3.5 mph - N/A   Overcast
3:32 AM 33.8 °F - 28.4 °F 81% 30.01 in 10.0 mi Calm Calm - N/A   Mostly Cloudy
3:53 AM 33.8 °F 29.6 °F 28.4 °F 81% 30.01 in 10.0 mi SSW 4.6 mph - N/A   Mostly Cloudy
4:13 AM 33.8 °F 29.6 °F 28.4 °F 81% 30.01 in 10.0 mi SSW 4.6 mph - N/A   Overcast
4:32 AM 33.8 °F - 28.4 °F 81% 30.01 in 7.0 mi Calm Calm - N/A   Overcast
4:53 AM 33.8 °F 29.6 °F 28.4 °F 81% 30.02 in 10.0 mi WSW 4.6 mph - N/A   Overcast
5:13 AM 33.8 °F 29.6 °F 30.2 °F 87% 30.02 in 7.0 mi SW 4.6 mph - N/A   Overcast
5:32 AM 33.8 °F 30.8 °F 30.2 °F 87% 30.03 in 7.0 mi WSW 3.5 mph - N/A   Mostly Cloudy
5:53 AM 33.8 °F 27.7 °F 30.2 °F 87% 30.04 in 7.0 mi West 6.9 mph - N/A   Overcast
6:13 AM 33.8 °F 26.4 °F 30.2 °F 87% 30.05 in 7.0 mi West 9.2 mph - N/A   Overcast
6:32 AM 32.0 °F 24.8 °F 30.2 °F 93% 30.05 in 5.0 mi WNW 8.1 mph - N/A   Overcast
6:52 AM 32.0 °F 24.2 °F 30.2 °F 93% 30.07 in 7.0 mi WNW 9.2 mph 17.3 mph N/A   Overcast
7:13 AM 30.2 °F 21.3 °F 26.6 °F 86% 30.08 in 10.0 mi NW 10.4 mph 20.7 mph N/A Snow Light Snow
7:33 AM 28.4 °F 18.5 °F 26.6 °F 93% 30.10 in 3.0 mi NW 11.5 mph 18.4 mph N/A Snow Light Snow
7:52 AM 28.4 °F 18.0 °F 24.8 °F 86% 30.12 in 5.0 mi WNW 12.7 mph 17.3 mph N/A Snow Light Snow
8:13 AM 26.6 °F 17.5 °F 24.8 °F 93% 30.13 in 10.0 mi NW 9.2 mph 18.4 mph N/A   Overcast
8:33 AM 26.6 °F 15.7 °F 21.2 °F 80% 30.15 in 10.0 mi WNW 12.7 mph 17.3 mph N/A   Overcast
8:52 AM 24.8 °F 15.3 °F 21.2 °F 86% 30.16 in 10.0 mi NW 9.2 mph 18.4 mph N/A   Overcast
9:13 AM 24.8 °F 14.0 °F 19.4 °F 80% 30.17 in 10.0 mi NW 11.5 mph 18.4 mph N/A   Overcast
9:33 AM 23.0 °F 12.4 °F 19.4 °F 86% 30.19 in 7.0 mi NW 10.4 mph 18.4 mph N/A Snow Light Snow
9:52 AM 23.0 °F 11.7 °F 17.6 °F 80% 30.20 in 10.0 mi NW 11.5 mph 19.6 mph N/A   Overcast
10:13 AM 21.2 °F 11.7 °F 17.6 °F 86% 30.21 in 10.0 mi NW 8.1 mph 17.3 mph N/A   Overcast
10:33 AM 23.0 °F 13.1 °F 17.6 °F 80% 30.22 in 10.0 mi NNW 9.2 mph 19.6 mph N/A   Overcast
10:52 AM 21.2 °F 8.9 °F 15.8 °F 80% 30.23 in 10.0 mi NNW 12.7 mph 18.4 mph N/A Snow Light Snow
11:13 AM 21.2 °F 8.3 °F 17.6 °F 86% 30.24 in 5.0 mi NW 13.8 mph 19.6 mph N/A Snow Light Snow
11:33 AM 21.2 °F 10.1 °F 17.6 °F 86% 30.24 in 10.0 mi NW 10.4 mph 17.3 mph N/A Snow Light Snow
11:53 AM 21.2 °F 9.5 °F 15.8 °F 80% 30.25 in 10.0 mi NW 11.5 mph 16.1 mph N/A Snow Light Snow
12:13 PM 21.2 °F 11.7 °F 15.8 °F 80% 30.25 in 10.0 mi NNW 8.1 mph 18.4 mph N/A   Overcast
12:32 PM 21.2 °F 13.6 °F 15.8 °F 80% 30.26 in 10.0 mi NNW 5.8 mph - N/A   Overcast
12:53 PM 21.2 °F 10.1 °F 15.8 °F 80% 30.25 in 10.0 mi NW 10.4 mph 16.1 mph N/A   Mostly Cloudy
1:13 PM 21.2 °F 10.1 °F 15.8 °F 80% 30.26 in 10.0 mi NW 10.4 mph 18.4 mph N/A   Overcast
1:32 PM 21.2 °F 10.9 °F 15.8 °F 80% 30.26 in 10.0 mi NW 9.2 mph - N/A   Overcast
1:53 PM 21.2 °F 9.5 °F 15.8 °F 80% 30.27 in 10.0 mi NW 11.5 mph 20.7 mph N/A   Mostly Cloudy
2:13 PM 21.2 °F 9.5 °F 14.0 °F 74% 30.27 in 10.0 mi NW 11.5 mph 21.9 mph N/A   Mostly Cloudy
2:32 PM 21.2 °F 9.5 °F 14.0 °F 74% 30.28 in 10.0 mi NNW 11.5 mph 18.4 mph N/A   Mostly Cloudy
2:53 PM 21.2 °F 12.6 °F 14.0 °F 74% 30.29 in 10.0 mi NNW 6.9 mph 18.4 mph N/A   Overcast
3:13 PM 21.2 °F 11.7 °F 12.2 °F 68% 30.31 in 10.0 mi NNW 8.1 mph 17.3 mph N/A   Mostly Cloudy
3:33 PM 21.2 °F 11.7 °F 12.2 °F 68% 30.31 in 10.0 mi NNW 8.1 mph 18.4 mph N/A   Overcast
3:53 PM 21.2 °F 11.7 °F 12.2 °F 68% 30.32 in 10.0 mi NNW 8.1 mph 16.1 mph N/A   Mostly Cloudy
4:12 PM 19.4 °F 6.6 °F 12.2 °F 74% 30.33 in 10.0 mi NW 12.7 mph 18.4 mph N/A   Mostly Cloudy
4:33 PM 19.4 °F 6.6 °F 12.2 °F 74% 30.34 in 10.0 mi NNW 12.7 mph 19.6 mph N/A   Overcast
4:53 PM 19.4 °F 10.4 °F 12.2 °F 74% 30.35 in 10.0 mi NNW 6.9 mph 17.3 mph N/A   Mostly Cloudy
5:13 PM 19.4 °F 6.6 °F 12.2 °F 74% 30.36 in 10.0 mi NW 12.7 mph 17.3 mph N/A   Scattered Clouds
5:33 PM 19.4 °F 9.5 °F 12.2 °F 74% 30.37 in 10.0 mi NNW 8.1 mph 17.3 mph N/A   Scattered Clouds
5:53 PM 17.6 °F 9.3 °F 10.4 °F 73% 30.37 in 10.0 mi NNW 5.8 mph - N/A   Scattered Clouds
6:12 PM 17.6 °F 6.4 °F 12.2 °F 79% 30.38 in 10.0 mi NW 9.2 mph - N/A   Mostly Cloudy
6:33 PM 17.6 °F 9.3 °F 10.4 °F 73% 30.38 in 10.0 mi NNW 5.8 mph - N/A   Overcast
6:53 PM 17.6 °F 6.4 °F 12.2 °F 79% 30.39 in 10.0 mi NW 9.2 mph - N/A Snow Light Snow
7:12 PM 17.6 °F 5.0 °F 10.4 °F 73% 30.40 in 10.0 mi NNW 11.5 mph 19.6 mph N/A   Overcast
7:33 PM 17.6 °F 6.4 °F 10.4 °F 73% 30.40 in 10.0 mi NW 9.2 mph 16.1 mph N/A   Overcast
7:53 PM 17.6 °F 6.4 °F 10.4 °F 73% 30.41 in 10.0 mi NW 9.2 mph 16.1 mph N/A Snow Light Snow
8:12 PM 17.6 °F 7.3 °F 10.4 °F 73% 30.41 in 10.0 mi NNW 8.1 mph 18.4 mph N/A   Overcast
8:33 PM 15.8 °F 3.4 °F 10.4 °F 79% 30.42 in 10.0 mi NW 10.4 mph 23.0 mph N/A   Mostly Cloudy
8:53 PM 15.8 °F 4.2 °F 10.4 °F 79% 30.42 in 10.0 mi NW 9.2 mph 17.3 mph N/A   Mostly Cloudy
9:12 PM 15.8 °F 7.2 °F 10.4 °F 79% 30.43 in 10.0 mi NNW 5.8 mph - N/A Snow Light Snow
9:33 PM 15.8 °F 4.2 °F 10.4 °F 79% 30.43 in 10.0 mi NW 9.2 mph - N/A Snow Light Snow
9:53 PM 15.8 °F 7.2 °F 10.4 °F 79% 30.43 in 10.0 mi NW 5.8 mph - N/A   Overcast
10:12 PM 15.8 °F 4.2 °F 8.6 °F 73% 30.44 in 10.0 mi NNW 9.2 mph - N/A   Overcast
10:33 PM 15.8 °F 7.2 °F 8.6 °F 73% 30.44 in 10.0 mi NNW 5.8 mph - N/A   Scattered Clouds
10:53 PM 15.8 °F 7.2 °F 8.6 °F 73% 30.44 in 10.0 mi NNW 5.8 mph 16.1 mph N/A   Clear
11:12 PM 15.8 °F 8.6 °F 8.6 °F 73% 30.44 in 10.0 mi NNW 4.6 mph - N/A   Clear
11:33 PM 15.8 °F 7.2 °F 8.6 °F 73% 30.44 in 10.0 mi NW 5.8 mph - N/A   Clear
11:53 PM 15.8 °F 7.2 °F 8.6 °F 73% 30.44 in 10.0 mi NNW 5.8 mph - N/A   Scattered Clouds